Location: Pinon Hills
(34.4429°N, 117.6403°W)
Time: 18:29:33
(UTC-07:00)

Amateur Radio Satellites - All Passes

Search period start: 31 July 2015 17:59
Search period end: 01 August 2015 17:59
Location: Pinon Hills, 34.4429°N, 117.6403°W

Satellite Date Start Highest point End Downlink Frequencies (MHz)
Time Altitude Azimuth
Cubesat XI-IV 31 Jul 18:03:50 18:09:02 53° 73° (ENE) 18:14:16 437.490
GONETS M04 31 Jul 18:07:20 18:16:02 74° 266° (W) 18:24:43
Cosmos 2499 31 Jul 18:16:03 18:23:36 33° 72° (ENE) 18:31:25 435.465 / 435.565
VERMONT LUNAR 31 Jul 18:20:47 18:23:56 71° 155° (SSE) 18:27:07 437.305
PCSat 31 Jul 18:35:59 18:41:13 49° 59° (ENE) 18:46:28 145.827
PRISM 31 Jul 18:52:57 18:54:00 11° 91° (E) 18:55:20 437.425
CUTE-I 31 Jul 19:00:05 19:05:11 43° 261° (W) 19:10:17 437.470
SO-50 31 Jul 19:04:34 19:09:31 80° 241° (WSW) 19:14:19 436.795
CUBESAT XI-V 31 Jul 19:07:22 19:12:00 83° 283° (WNW) 19:16:35 437.345
HO-68 31 Jul 19:13:01 19:17:38 20° 62° (ENE) 19:22:34 435.675
BRITE-PL 31 Jul 19:13:28 19:17:10 27° 73° (ENE) 19:20:48 437.365/2234.400
STRAND 1 31 Jul 19:24:41 19:29:26 39° 98° (E) 19:34:12 437.568
GOMX 1 31 Jul 19:27:25 19:30:33 21° 72° (ENE) 19:33:44 467.674
Cubesat XI-IV 31 Jul 19:46:10 19:49:31 16° 269° (W) 19:52:36 437.490
ISS 31 Jul 19:56:02 19:58:01 16° 129° (SE) 20:00:06 145.825
VERMONT LUNAR 31 Jul 19:57:56 20:00:50 31° 349° (N) 20:03:44 437.305
SEEDS 31 Jul 19:59:22 20:02:13 18° 70° (ENE) 20:05:12 437.485
CUTE 1.7 + AOD 2 31 Jul 20:00:53 20:04:15 24° 72° (ENE) 20:07:45 437.475
PHONESAT 2.4 31 Jul 20:03:07 20:06:35 60° 153° (SSE) 20:10:03 2401.200-2431.200
Cosmos 2499 31 Jul 20:08:38 20:17:04 51° 269° (W) 20:25:25 435.465 / 435.565
CANX-2 31 Jul 20:08:44 20:12:31 33° 73° (ENE) 20:16:25 2200.000
PCSat 31 Jul 20:20:33 20:24:18 18° 254° (WSW) 20:27:49 145.827
PRISM 31 Jul 20:25:49 20:29:45 44° 286° (WNW) 20:33:38 437.425
AAUSAT CUBESAT 2 31 Jul 20:26:23 20:29:45 24° 72° (ENE) 20:33:13 437.432
RS-15 31 Jul 20:39:55 20:49:36 41° 109° (ESE) 20:59:44 29.354- 29.394
BRITE-PL 31 Jul 20:52:18 20:55:44 21° 265° (W) 20:58:54 437.365/2234.400
DOVE 4 31 Jul 20:54:49 20:58:57 57° 260° (W) 21:03:01 437.250
HO-68 31 Jul 20:57:39 21:04:46 72° 257° (WSW) 21:11:55 435.675
ZACube-1 31 Jul 21:04:30 21:07:10 17° 69° (ENE) 21:10:01 437.345
STRAND 1 31 Jul 21:04:37 21:08:24 21° 292° (WNW) 21:12:01 437.568
GOMX 1 31 Jul 21:05:02 21:08:37 25° 264° (W) 21:12:03 467.674
CINEMA 3 31 Jul 21:07:06 21:11:13 77° 79° (ENE) 21:15:25 145.822/145.860
COMPASS 1 31 Jul 21:19:09 21:23:18 60° 260° (W) 21:27:30 437.405
M-CUBED/EXP-1 PRIME 31 Jul 21:22:46 21:25:02 14° 94° (E) 21:27:32 437.505
FUNcube-1 31 Jul 21:25:22 21:28:57 29° 72° (ENE) 21:32:40 145.935
UWE-3 31 Jul 21:26:07 21:30:00 41° 74° (ENE) 21:34:01 435.000/436.395/437.385
ISS 31 Jul 21:31:11 21:34:14 37° 322° (NW) 21:37:17 145.825
SEEDS 31 Jul 21:34:01 21:37:48 30° 264° (W) 21:41:33 437.485
VERMONT LUNAR 31 Jul 21:35:15 21:38:03 27° 6° (N) 21:40:50 437.305
CUTE 1.7 + AOD 2 31 Jul 21:36:40 21:40:07 23° 266° (W) 21:43:30 437.475
Oscar 11 31 Jul 21:38:08 21:42:27 78° 78° (ENE) 21:46:49 145.826/435.025
CUBEBUG 2 31 Jul 21:40:34 21:44:42 84° 78° (ENE) 21:48:58 437.445
PHONESAT 2.4 31 Jul 21:41:23 21:44:40 37° 347° (NNW) 21:47:59 2401.200-2431.200
UKube-1 31 Jul 21:42:22 21:43:58 12° 67° (ENE) 21:45:48 .
CANX-2 31 Jul 21:45:45 21:48:34 17° 268° (W) 21:51:14 2200.000
DELFI C3 31 Jul 21:49:43 21:53:44 70° 77° (ENE) 21:57:48 145.870
AUBIESAT-1 31 Jul 21:51:17 21:55:06 25° 99° (E) 21:58:52 437.475
HUMSAT D 31 Jul 21:53:42 21:57:03 25° 72° (ENE) 22:00:30 437.325/437.525
AAUSAT CUBESAT 2 31 Jul 22:01:59 22:05:18 22° 266° (W) 22:08:32 437.432
DX 1 31 Jul 22:07:43 22:11:19 27° 71° (ENE) 22:15:01 434.975-435.025
UNISAT 6 31 Jul 22:12:18 22:14:08 12° 90° (E) 22:16:15 437.425
Cosmos 2491 31 Jul 22:14:46 22:19:53 17° 65° (ENE) 22:25:31 435.465 / 435.565
VELOX 1 31 Jul 22:21:04 22:24:21 22° 70° (ENE) 22:27:46 145.980
ESTCUBE 1 31 Jul 22:31:25 22:34:37 20° 70° (ENE) 22:37:58 437.505/2401.250
ZACube-1 31 Jul 22:39:33 22:43:19 31° 264° (W) 22:47:06 437.345
RS-15 31 Jul 22:51:14 23:01:47 51° 308° (NW) 23:12:37 29.354- 29.394
TIGRISAT 31 Jul 22:53:44 22:58:03 36° 97° (E) 23:02:24 435.000
ANTELSAT 31 Jul 22:55:20 22:59:44 39° 98° (E) 23:04:09 437.575/2403.000
M-CUBED/EXP-1 PRIME 31 Jul 22:55:28 23:00:10 54° 290° (WNW) 23:04:41 437.505
BEESAT 3 31 Jul 22:58:29 23:02:03 31° 113° (ESE) 23:05:42 437.485
DUCHIFAT 1 31 Jul 23:01:15 23:03:22 14° 92° (E) 23:05:42 145.980
FUNcube-1 31 Jul 23:02:24 23:05:21 18° 267° (W) 23:08:12 145.935
QB50P1 31 Jul 23:03:54 23:06:26 16° 93° (E) 23:09:11 145.935-145.965
UWE-3 31 Jul 23:04:53 23:06:50 13° 270° (W) 23:08:33 435.000/436.395/437.385
NANOSAT C BR1 31 Jul 23:05:14 23:07:49 16° 93° (E) 23:10:35 145.865
VERMONT LUNAR 31 Jul 23:11:54 23:15:05 73° 24° (NNE) 23:18:13 437.305
UKube-1 31 Jul 23:15:30 23:19:42 50° 260° (W) 23:23:55 .
AISAT 31 Jul 23:17:05 23:21:30 79° 259° (W) 23:25:55 437.250
PHONESAT 2.4 31 Jul 23:19:59 23:23:08 30° 5° (N) 23:26:16 2401.200-2431.200
50 SAT 31 Jul 23:20:17 23:24:05 57° 260° (W) 23:27:57 437.505
AUBIESAT-1 31 Jul 23:25:36 23:29:46 30° 293° (WNW) 23:33:44 437.475
HUMSAT D 31 Jul 23:29:35 23:32:45 21° 266° (W) 23:35:52 437.325/437.525
CUBEBUG 1 31 Jul 23:32:14 23:36:36 82° 76° (ENE) 23:40:58 437.445
DX 1 31 Jul 23:44:10 23:47:34 21° 265° (W) 23:50:50 434.975-435.025
POLYITAN 1 31 Jul 23:45:33 23:49:44 53° 100° (E) 23:53:57 437.675
UNISAT 6 31 Jul 23:46:40 23:51:16 54° 285° (WNW) 23:55:51 437.425
AIST 2 31 Jul 23:49:45 23:52:36 18° 111° (ESE) 23:55:37 435.215
AIST 1 31 Jul 23:51:47 23:55:58 59° 266° (W) 00:00:09
BEESAT 2 31 Jul 23:55:24 23:59:29 71° 299° (WNW) 00:03:36 435.950
VELOX 1 31 Jul 23:56:57 00:00:47 28° 264° (W) 00:04:32 145.980
POPSAT HIP 1 01 Aug 00:02:40 00:06:57 85° 101° (E) 00:11:14 437.405
ESTCUBE 1 01 Aug 00:07:12 00:11:17 32° 263° (W) 00:15:21 437.505/2401.250
BUGSAT 1 01 Aug 00:08:21 00:12:22 57° 100° (E) 00:16:25 437.445
Cosmos 2491 01 Aug 00:09:14 00:17:57 83° 266° (W) 00:26:41 435.465 / 435.565
SPROUT 01 Aug 00:09:25 00:13:36 58° 76° (ENE) 00:17:49 437.525
QB50P2 01 Aug 00:10:17 00:14:33 74° 284° (WNW) 00:18:49 145.880/145.840
TISAT 1 01 Aug 00:22:24 00:26:26 49° 74° (ENE) 00:30:29 437.305
YUBILEINY 01 Aug 00:25:39 00:34:11 66° 93° (E) 00:42:50 435.215
TIGRISAT 01 Aug 00:31:09 00:34:33 19° 291° (WNW) 00:37:48 435.000
ANTELSAT 01 Aug 00:32:59 00:36:13 18° 291° (WNW) 00:39:18 437.575/2403.000
DUCHIFAT 1 01 Aug 00:35:24 00:39:22 39° 286° (WNW) 00:43:18 145.980
BEESAT 3 01 Aug 00:36:59 00:40:03 20° 309° (NW) 00:43:03 437.485
QB50P1 01 Aug 00:38:34 00:42:26 34° 287° (WNW) 00:46:17 145.935-145.965
NANOSAT C BR1 01 Aug 00:39:54 00:43:46 33° 287° (WNW) 00:47:34 145.865
VERMONT LUNAR 01 Aug 00:49:23 00:51:33 17° 216° (SW) 00:53:40 437.305
BEESAT 01 Aug 00:53:09 00:56:17 18° 68° (ENE) 00:59:36 436.000
O/OREOS (USA 219) 01 Aug 00:55:14 00:58:53 26° 103° (ESE) 01:02:38 437.305
PHONESAT 2.4 01 Aug 00:57:57 01:01:26 68° 21° (NNE) 01:04:54 2401.200-2431.200
RS-15 01 Aug 01:11:38 01:18:01 16° 338° (NNW) 01:24:08 29.354- 29.394
SWISSCUBE 01 Aug 01:12:29 01:16:42 32° 71° (ENE) 01:20:58 437.505
Oscar 19 01 Aug 01:15:08 01:18:27 18° 92° (E) 01:21:58 437.125/150
POLYITAN 1 01 Aug 01:23:46 01:25:14 11° 292° (WNW) 01:26:26 437.675
AIST 2 01 Aug 01:27:04 01:30:57 34° 305° (NW) 01:34:51 435.215
ITUPSAT 1 01 Aug 01:32:55 01:37:31 47° 73° (ENE) 01:42:09 437.325
KKS-1 01 Aug 01:51:20 01:51:22 10° 66° (ENE) 01:51:42 437.445
TISAT 1 01 Aug 02:01:35 02:02:32 10° 270° (W) 02:03:11 437.305
Cosmos 2491 01 Aug 02:10:14 02:13:43 12° 280° (W) 02:16:26 435.465 / 435.565
Gurwin Techsat 1B 01 Aug 02:12:34 02:16:08 19° 92° (E) 02:19:55 435.225
YUBILEINY 01 Aug 02:25:06 02:31:48 23° 292° (WNW) 02:38:11 435.215
Cosmos 2504 01 Aug 02:26:46 02:33:19 44° 89° (E) 02:40:20 435.465 / 435.565
BEESAT 01 Aug 02:29:20 02:33:51 40° 262° (W) 02:38:21 436.000
O/OREOS (USA 219) 01 Aug 02:34:37 02:38:17 24° 298° (WNW) 02:41:51 437.305
ITAMSAT 1 01 Aug 02:35:01 02:39:20 27° 95° (E) 02:43:44 435.822/435.867
PHONESAT 2.4 01 Aug 02:36:26 02:39:12 22° 215° (SW) 02:41:55 2401.200-2431.200
SWISSCUBE 01 Aug 02:50:49 02:54:35 22° 266° (W) 02:58:15 437.505
Oscar 19 01 Aug 02:53:07 02:58:04 46° 287° (WNW) 03:02:59 437.125/150
STARS 01 Aug 02:57:03 03:00:59 34° 73° (ENE) 03:04:58 437.465
JAS-2 01 Aug 03:04:31 03:11:07 30° 92° (E) 03:17:45 435.910
AO-7 01 Aug 03:12:06 03:15:19 13° 89° (E) 03:19:15 29.400- 29.500
ITUPSAT 1 01 Aug 03:12:55 03:15:43 15° 269° (W) 03:18:16 437.325
JUGNU 01 Aug 03:13:47 03:16:52 14° 169° (S) 03:20:01 437.505
KKS-1 01 Aug 03:23:08 03:27:31 64° 258° (WSW) 03:31:55 437.445
RS-15 01 Aug 03:32:30 03:37:26 13° 15° (NNE) 03:42:50 29.354- 29.394
Gurwin Techsat 1B 01 Aug 03:51:19 03:56:22 44° 288° (WNW) 04:01:22 435.225
CUSAT 1 01 Aug 03:56:25 03:58:57 24° 97° (E) 04:01:15 437.405
ISS 01 Aug 04:01:26 04:04:34 42° 39° (NE) 04:07:40 145.825
MOZHAYETS 4 01 Aug 04:13:05 04:17:28 45° 74° (ENE) 04:21:56
ITAMSAT 1 01 Aug 04:14:20 04:18:49 30° 290° (WNW) 04:23:13 435.822/435.867
Cosmos 2504 01 Aug 04:19:47 04:25:47 28° 289° (WNW) 04:31:55 435.465 / 435.565
HORYU 2 01 Aug 04:24:05 04:28:26 46° 99° (E) 04:32:46 437.375
STARS 01 Aug 04:34:41 04:37:34 17° 267° (W) 04:40:16 437.465
JAS-2 01 Aug 04:48:48 04:56:23 52° 289° (WNW) 05:03:43 435.910
AO-7 01 Aug 05:01:00 05:09:23 85° 106° (ESE) 05:17:42 29.400- 29.500
JUGNU 01 Aug 05:01:08 05:05:13 19° 179° (S) 05:09:17 437.505
SRMSAT 01 Aug 05:05:27 05:08:33 15° 169° (S) 05:11:43 437.500
GONETS M04 01 Aug 05:09:13 05:15:50 26° 85° (E) 05:22:46
DANDE 01 Aug 05:18:11 05:21:12 26° 280° (W) 05:23:42 436.750
ISS 01 Aug 05:38:58 05:40:45 14° 232° (SW) 05:42:25 145.825
RS-15 01 Aug 05:44:06 05:54:46 39° 46° (NE) 06:05:59 29.354- 29.394
MOZHAYETS 4 01 Aug 05:52:23 05:54:59 14° 269° (W) 05:57:21
HORYU 2 01 Aug 06:02:13 06:04:42 14° 292° (WNW) 06:06:59 437.375
CUBESAT XI-V 01 Aug 06:06:53 06:11:31 63° 75° (ENE) 06:16:09 437.345
Cubesat XI-IV 01 Aug 06:25:14 06:29:43 28° 96° (E) 06:34:18 437.490
STRAND 1 01 Aug 06:37:01 06:41:47 40° 72° (ENE) 06:46:35 437.568
Cosmos 2499 01 Aug 06:49:50 06:55:16 24° 85° (E) 07:01:17 435.465 / 435.565
JUGNU 01 Aug 06:49:58 06:53:34 16° 189° (S) 06:57:06 437.505
SRMSAT 01 Aug 06:52:59 06:57:03 19° 179° (S) 07:01:06 437.500
AO-7 01 Aug 06:55:43 07:01:20 19° 302° (WNW) 07:06:32 29.400- 29.500
GONETS M04 01 Aug 07:03:40 07:12:13 57° 281° (W) 07:20:42
PRISM 01 Aug 07:11:41 07:15:52 78° 76° (ENE) 07:20:04 437.425
CUTE-I 01 Aug 07:20:32 07:25:52 81° 286° (WNW) 07:31:10 437.470
BRITE-PL 01 Aug 07:22:39 07:23:55 11° 91° (E) 07:25:31 437.365/2234.400
CUBESAT XI-V 01 Aug 07:48:42 07:49:25 10° 271° (W) 07:49:49 437.345
RS-15 01 Aug 07:56:17 08:07:57 62° 247° (WSW) 08:19:51 29.354- 29.394
Cubesat XI-IV 01 Aug 08:05:11 08:09:48 30° 290° (WNW) 08:14:20 437.490
STRAND 1 01 Aug 08:17:21 08:21:09 20° 267° (W) 08:24:47 437.568
BEESAT 2 01 Aug 08:18:18 08:21:31 23° 52° (NE) 08:24:46 435.950
HO-68 01 Aug 08:30:02 08:35:50 27° 95° (E) 08:41:51 435.675
AUBIESAT-1 01 Aug 08:36:09 08:38:41 17° 63° (ENE) 08:41:28 437.475
Cosmos 2499 01 Aug 08:40:46 08:47:54 53° 282° (WNW) 08:55:33 435.465 / 435.565
SRMSAT 01 Aug 08:41:59 08:45:32 16° 189° (S) 08:49:03 437.500
DOVE 4 01 Aug 08:56:19 09:00:50 47° 99° (E) 09:05:38 437.250
BEESAT 3 01 Aug 08:57:24 09:01:27 84° 61° (ENE) 09:05:25 437.485
BRITE-PL 01 Aug 08:58:24 09:02:44 54° 285° (WNW) 09:07:24 437.365/2234.400
CINEMA 3 01 Aug 09:05:15 09:09:10 26° 95° (E) 09:13:18 145.822/145.860
COMPASS 1 01 Aug 09:06:28 09:10:02 27° 96° (E) 09:13:39 437.405
GOMX 1 01 Aug 09:08:24 09:12:59 75° 282° (WNW) 09:17:52 467.674
PCSat 01 Aug 09:13:41 09:19:06 86° 294° (WNW) 09:24:33 145.827
SO-50 01 Aug 09:15:05 09:19:47 79° 117° (ESE) 09:24:39 436.795
UWE-3 01 Aug 09:21:03 09:22:51 12° 90° (E) 09:24:57 435.000/436.395/437.385
SEEDS 01 Aug 09:21:18 09:25:29 55° 100° (E) 09:29:39 437.485
CUTE 1.7 + AOD 2 01 Aug 09:24:20 09:28:39 78° 101° (E) 09:32:55 437.475
Oscar 11 01 Aug 09:30:03 09:33:02 18° 93° (E) 09:36:09 145.826/435.025
CANX-2 01 Aug 09:32:46 09:37:04 73° 284° (WNW) 09:41:20 2200.000
DELFI C3 01 Aug 09:34:16 09:35:47 12° 91° (E) 09:37:31 145.870
CUBEBUG 2 01 Aug 09:35:17 09:39:02 24° 95° (E) 09:42:57 437.445
M-CUBED/EXP-1 PRIME 01 Aug 09:39:51 09:43:45 71° 254° (WSW) 09:48:03 437.505
AAUSAT CUBESAT 2 01 Aug 09:47:16 09:51:29 75° 102° (ESE) 09:55:38 437.432
TIGRISAT 01 Aug 09:49:57 09:53:02 20° 70° (ENE) 09:56:18 435.000
ANTELSAT 01 Aug 09:51:37 09:54:54 22° 70° (ENE) 09:58:20 437.575/2403.000
AIST 2 01 Aug 09:51:42 09:55:46 50° 58° (ENE) 09:59:47 435.215
BEESAT 2 01 Aug 09:56:09 09:59:32 25° 248° (WSW) 10:02:48 435.950
AUBIESAT-1 01 Aug 10:09:25 10:13:04 35° 259° (W) 10:17:00 437.475
HO-68 01 Aug 10:16:58 10:23:50 49° 290° (WNW) 10:30:39 435.675
ZACube-1 01 Aug 10:30:47 10:35:18 61° 100° (E) 10:39:51 437.345
DOVE 4 01 Aug 10:35:30 10:38:19 15° 290° (WNW) 10:41:01 437.250
POLYITAN 1 01 Aug 10:35:33 10:38:57 25° 72° (ENE) 10:42:27 437.675
YUBILEINY 01 Aug 10:41:04 10:48:04 27° 70° (ENE) 10:55:22 435.215
UNISAT 6 01 Aug 10:41:54 10:46:13 87° 82° (E) 10:50:40 437.425
CINEMA 3 01 Aug 10:42:16 10:46:18 28° 288° (WNW) 10:50:23 145.822/145.860
COMPASS 1 01 Aug 10:42:24 10:45:33 20° 289° (WNW) 10:48:34 437.405
POPSAT HIP 1 01 Aug 10:52:00 10:55:52 38° 74° (ENE) 10:59:47 437.405
FUNcube-1 01 Aug 10:52:21 10:56:55 78° 283° (WNW) 11:01:30 145.935
UWE-3 01 Aug 10:55:12 10:59:43 53° 285° (WNW) 11:04:15 435.000/436.395/437.385
BUGSAT 1 01 Aug 10:55:28 10:58:44 24° 72° (ENE) 11:02:02 437.445
SO-50 01 Aug 10:58:40 11:01:00 13° 317° (NW) 11:03:10 436.795
QB50P2 01 Aug 10:59:31 11:03:34 50° 75° (ENE) 11:07:40 145.880/145.840
SEEDS 01 Aug 10:59:43 11:00:50 11° 292° (WNW) 11:01:41 437.485
50 SAT 01 Aug 10:59:48 11:02:43 20° 94° (E) 11:05:43 437.505
PCSat 01 Aug 11:01:20 11:03:25 12° 315° (NW) 11:05:13 145.827
Oscar 11 01 Aug 11:05:25 11:09:18 31° 287° (WNW) 11:13:05 145.826/435.025
UKube-1 01 Aug 11:06:35 11:10:29 33° 98° (E) 11:14:24 .
DELFI C3 01 Aug 11:07:17 11:11:05 40° 286° (WNW) 11:14:51 145.870
O/OREOS (USA 219) 01 Aug 11:08:12 11:12:11 29° 63° (ENE) 11:16:12 437.305
CUBEBUG 2 01 Aug 11:11:41 11:15:41 28° 288° (WNW) 11:19:40 437.445
AISAT 01 Aug 11:11:45 11:15:22 25° 96° (E) 11:19:05 437.250
Cosmos 2491 01 Aug 11:11:47 11:17:56 23° 84° (E) 11:24:30 435.465 / 435.565
HUMSAT D 01 Aug 11:15:41 11:20:02 80° 102° (ESE) 11:24:21 437.325/437.525
DUCHIFAT 1 01 Aug 11:23:39 11:27:50 87° 261° (W) 11:32:01 145.980
CUBEBUG 1 01 Aug 11:25:30 11:28:34 19° 94° (E) 11:31:46 437.445
TIGRISAT 01 Aug 11:25:50 11:29:37 29° 264° (W) 11:33:26 435.000
QB50P1 01 Aug 11:27:08 11:31:19 75° 260° (W) 11:35:31 145.935-145.965
ANTELSAT 01 Aug 11:27:52 11:31:34 27° 265° (W) 11:35:16 437.575/2403.000
NANOSAT C BR1 01 Aug 11:28:15 11:32:25 74° 257° (WSW) 11:36:37 145.865
AIST 2 01 Aug 11:32:34 11:33:55 11° 251° (WSW) 11:35:01 435.215
DX 1 01 Aug 11:34:45 11:39:06 84° 102° (ESE) 11:43:26 434.975-435.025
VELOX 1 01 Aug 11:50:06 11:54:30 71° 101° (ESE) 11:58:54 145.980
SPROUT 01 Aug 12:01:14 12:03:16 14° 91° (E) 12:05:33 437.525
ESTCUBE 1 01 Aug 12:02:52 12:07:21 68° 101° (E) 12:11:48 437.505/2401.250
ZACube-1 01 Aug 12:09:37 12:11:12 11° 293° (WNW) 12:12:31 437.345
POLYITAN 1 01 Aug 12:11:33 12:14:50 21° 266° (W) 12:18:00 437.675
TISAT 1 01 Aug 12:13:41 12:13:43 10° 90° (E) 12:14:03 437.305
AIST 1 01 Aug 12:17:02 12:21:25 85° 279° (W) 12:25:45
Cosmos 2504 01 Aug 12:19:45 12:22:05 12° 62° (ENE) 12:25:13 435.465 / 435.565
Oscar 19 01 Aug 12:28:55 12:32:16 19° 67° (ENE) 12:35:49 437.125/150
POPSAT HIP 1 01 Aug 12:29:41 12:31:57 14° 268° (W) 12:33:59 437.405
BUGSAT 1 01 Aug 12:31:06 12:34:11 20° 266° (W) 12:37:08 437.445
50 SAT 01 Aug 12:34:00 12:37:15 24° 288° (WNW) 12:40:24 437.505
YUBILEINY 01 Aug 12:36:51 12:45:28 58° 268° (W) 12:54:00 435.215
QB50P2 01 Aug 12:38:55 12:39:49 10° 270° (W) 12:40:27 145.880/145.840
UKube-1 01 Aug 12:43:26 12:46:22 18° 291° (WNW) 12:49:09 .
O/OREOS (USA 219) 01 Aug 12:47:54 12:51:29 22° 257° (WSW) 12:54:55 437.305
AISAT 01 Aug 12:48:17 12:51:51 24° 289° (WNW) 12:55:19 437.250
CUBEBUG 1 01 Aug 13:01:11 13:04:58 29° 288° (WNW) 13:08:41 437.445
Cosmos 2491 01 Aug 13:05:30 13:14:12 64° 280° (W) 13:22:52 435.465 / 435.565
SWISSCUBE 01 Aug 13:19:23 13:19:49 10° 89° (E) 13:20:37 437.505
Gurwin Techsat 1B 01 Aug 13:30:17 13:34:11 22° 68° (ENE) 13:38:16 435.225
SPROUT 01 Aug 13:35:32 13:39:35 41° 286° (WNW) 13:43:36 437.525
ITUPSAT 1 01 Aug 13:38:23 13:41:14 16° 92° (E) 13:44:18 437.325
TISAT 1 01 Aug 13:45:44 13:49:51 52° 285° (WNW) 13:53:57 437.305
ITAMSAT 1 01 Aug 13:49:33 13:53:59 30° 70° (ENE) 13:58:32 435.822/435.867
Oscar 19 01 Aug 14:06:26 14:11:19 44° 261° (W) 14:16:13 437.125/150
Cosmos 2504 01 Aug 14:07:30 14:15:59 73° 82° (E) 14:24:36 435.465 / 435.565
AO-7 01 Aug 14:07:43 14:12:08 16° 56° (NE) 14:17:02 29.400- 29.500
CUSAT 1 01 Aug 14:32:40 14:36:05 21° 78° (ENE) 14:40:25 437.405
BEESAT 01 Aug 14:32:47 14:37:33 69° 101° (E) 14:42:16 436.000
SWISSCUBE 01 Aug 14:53:27 14:58:12 64° 284° (WNW) 15:02:52 437.505
JAS-2 01 Aug 14:56:39 15:02:23 52° 71° (ENE) 15:08:57 435.910
Gurwin Techsat 1B 01 Aug 15:08:58 15:13:56 40° 262° (W) 15:18:54 435.225
ITUPSAT 1 01 Aug 15:14:51 15:19:22 42° 287° (WNW) 15:23:49 437.325
KKS-1 01 Aug 15:18:00 15:21:57 31° 97° (E) 15:25:57 437.445
HORYU 2 01 Aug 15:19:11 15:22:54 28° 71° (ENE) 15:26:44 437.375
ITAMSAT 1 01 Aug 15:29:00 15:33:28 28° 264° (W) 15:37:51 435.822/435.867
AO-7 01 Aug 15:55:32 16:03:53 83° 72° (ENE) 16:12:19 29.400- 29.500
DANDE 01 Aug 15:57:27 16:01:30 78° 261° (W) 16:06:59 436.750
Cosmos 2504 01 Aug 16:01:31 16:07:31 21° 276° (W) 16:13:07 435.465 / 435.565
MOZHAYETS 4 01 Aug 16:13:20 16:15:42 14° 91° (E) 16:18:17
BEESAT 01 Aug 16:13:30 16:14:52 11° 295° (WNW) 16:15:57 436.000
CUSAT 1 01 Aug 16:14:22 16:18:32 33° 263° (W) 16:23:47 437.405
STARS 01 Aug 16:25:58 16:30:22 70° 284° (WNW) 16:34:46 437.465
JAS-2 01 Aug 16:43:32 16:48:02 21° 271° (W) 16:52:39 435.910
KKS-1 01 Aug 16:55:06 16:58:24 20° 290° (WNW) 17:01:34 437.445
HORYU 2 01 Aug 16:56:03 16:59:32 22° 265° (W) 17:02:57 437.375
CUTE-I 01 Aug 17:02:20 17:04:33 13° 65° (ENE) 17:07:04 437.470
GONETS M04 01 Aug 17:18:02 17:26:39 62° 80° (E) 17:35:19
VERMONT LUNAR 01 Aug 17:18:34 17:21:30 35° 149° (SSE) 17:24:27 437.305
Cubesat XI-IV 01 Aug 17:43:41 17:48:27 34° 71° (ENE) 17:53:16 437.490
MOZHAYETS 4 01 Aug 17:48:47 17:53:12 44° 286° (WNW) 17:57:33
SO-50 01 Aug 17:50:27 17:54:41 29° 52° (NE) 17:58:55 436.795
